Address 0x6ae3b59797b9a58df8a09c07de76777a5da7f376 3

 
Txn Hash Method
Block
From
To
Value [Txn Fee]
0xbf07230e577df1499eb4a8999247edb60cae1248ed92dc5b3e2e751d4e39e66aTransfer202696152021-10-16 6:45:151 hr 47 mins ago0x8fb65f8ebc806b728526b5c7150d358bc95928fe IN 0x6ae3b59797b9a58df8a09c07de76777a5da7f37650,000 MATIC0.00063
0xf9d2ea95ac26b0de90856aa759c0e6f53f7896f1772a3a48f9863bef5a193845Transfer200492322021-10-10 5:07:256 days 3 hrs ago0x8fb65f8ebc806b728526b5c7150d358bc95928fe IN 0x6ae3b59797b9a58df8a09c07de76777a5da7f37650,000 MATIC0.00063
0xc4bb65e565e320a6186281a6f487bd6d7e073bd85b6d28d25a76226ac7335142Transfer199873662021-10-08 14:53:457 days 17 hrs ago0x8fb65f8ebc806b728526b5c7150d358bc95928fe IN 0x6ae3b59797b9a58df8a09c07de76777a5da7f376100,000 MATIC0.0006363
0xd982c1166c7a5d8505128d896dcef1aafdceed372d032734ace19a88d8f7a835Transfer198603152021-10-05 6:09:1711 days 2 hrs ago0x8fb65f8ebc806b728526b5c7150d358bc95928fe IN 0x6ae3b59797b9a58df8a09c07de76777a5da7f3760.70951934763622 MATIC0.000126
0x9c049bc3a28b192732ed4d1d0e106c4aa02e70b7ee35d9746b966b0ab6afb17aTransfer196610242021-09-30 0:14:0516 days 8 hrs ago0x8fb65f8ebc806b728526b5c7150d358bc95928fe IN 0x6ae3b59797b9a58df8a09c07de76777a5da7f3762,397.492730814674594 MATIC0.00006993
0x9848513a6006d0416c933f9f459b657d30311d120f68240d106d21f31ff17859Transfer196606882021-09-29 23:58:1916 days 8 hrs ago0x8fb65f8ebc806b728526b5c7150d358bc95928fe IN 0x6ae3b59797b9a58df8a09c07de76777a5da7f3764,792.140277106569652 MATIC0.000945
0xc79a21144ceb39e23ca4532f0e459ed4a399efa07134190b0f8728c2d08e0f3aTransfer196599612021-09-29 23:27:3616 days 9 hrs ago0x8fb65f8ebc806b728526b5c7150d358bc95928fe IN 0x6ae3b59797b9a58df8a09c07de76777a5da7f3767,757.382338275679527 MATIC0.0000693
0x396c5772d6941757f70415c6a51b185f2e4aed076326b4b53aa9c433942fde44Transfer196588132021-09-29 22:41:4016 days 9 hrs ago0x8fb65f8ebc806b728526b5c7150d358bc95928fe IN 0x6ae3b59797b9a58df8a09c07de76777a5da7f3765,784.399765615020774 MATIC0.000189
0x4a7943e67f6a2478467ab41430f63d646a2fe9df2c4996eb78457634c2aa753dTransfer196581942021-09-29 22:16:0416 days 10 hrs ago0x8fb65f8ebc806b728526b5c7150d358bc95928fe IN 0x6ae3b59797b9a58df8a09c07de76777a5da7f37623,137.259514545107743 MATIC0.000063
0xb0d6b5d4316b9f2be0e0555138f0805dbde88c7b63843aea3a32cc13dea99131Transfer196575822021-09-29 21:50:4316 days 10 hrs ago0x8fb65f8ebc806b728526b5c7150d358bc95928fe IN 0x6ae3b59797b9a58df8a09c07de76777a5da7f37622,063.651555522407391 MATIC0.0001449
0x4c0adf8425deddc14a8957aa32ade1a7687dafb5944809f6c4fcc7ef2997439dTransfer196499492021-09-29 16:58:4616 days 15 hrs ago0x8fb65f8ebc806b728526b5c7150d358bc95928fe IN 0x6ae3b59797b9a58df8a09c07de76777a5da7f37613,583.626921572975166 MATIC0.002457
0xcf0a046b5633561669e8ef70361bcc64138da30164084264d37d60f2b3baa736Transfer196490532021-09-29 16:25:5016 days 16 hrs ago0x8fb65f8ebc806b728526b5c7150d358bc95928fe IN 0x6ae3b59797b9a58df8a09c07de76777a5da7f37615,083.943037933890765 MATIC0.0003213
0x5c4b1837460b4e20a2d8caab2be993b9414c691618a05c7998bb9fc1f3f22fdaTransfer196437832021-09-29 12:06:4016 days 20 hrs ago0x8fb65f8ebc806b728526b5c7150d358bc95928fe IN 0x6ae3b59797b9a58df8a09c07de76777a5da7f3761.061227534902965 MATIC0.00076923
0x6a3ba898438d12ee3d4b0293586d1ec5d303ca07b62c7af39f3934516a00b5abTransfer196435902021-09-29 11:51:1416 days 20 hrs ago0x8fb65f8ebc806b728526b5c7150d358bc95928fe IN 0x6ae3b59797b9a58df8a09c07de76777a5da7f3762.044366743085931 MATIC0.000189
0x5a9675f9d96eec00eaaa0ad27b89f9b92326f3e797530b62586f4c4c2e848b78Transfer196430502021-09-29 11:29:5016 days 21 hrs ago0x8fb65f8ebc806b728526b5c7150d358bc95928fe IN 0x6ae3b59797b9a58df8a09c07de76777a5da7f3763.049959035389018 MATIC0.00189
0xc40423292abdaf2e95046859708584b326b7e392803a6e937b1460c1338bb8a9Transfer196421772021-09-29 10:43:2816 days 21 hrs ago0x8fb65f8ebc806b728526b5c7150d358bc95928fe IN 0x6ae3b59797b9a58df8a09c07de76777a5da7f3763.148071949704098 MATIC0.002394
0x2f25e80c67667a64e2e6bbbaa388cdfb4fce40f30e85e26b543af90c28f6a208Transfer196412592021-09-29 9:57:1816 days 22 hrs ago0x8fb65f8ebc806b728526b5c7150d358bc95928fe IN 0x6ae3b59797b9a58df8a09c07de76777a5da7f3766.621665422173871 MATIC0.00504
0xa25a5813110e5ae3a5045a7d985c6aafe875860034671f2d085ecd5d4524fefdTransfer196405392021-09-29 9:19:5616 days 23 hrs ago0x8fb65f8ebc806b728526b5c7150d358bc95928fe IN 0x6ae3b59797b9a58df8a09c07de76777a5da7f3769.853035550005631 MATIC0.0026391582
0x20c5a24b71ce0e8f1f653eca77f3624b687ddfdbdf8087c81c2a4d3600e95be6Transfer196398892021-09-29 8:41:0416 days 23 hrs ago0x8fb65f8ebc806b728526b5c7150d358bc95928fe IN 0x6ae3b59797b9a58df8a09c07de76777a5da7f3767.365376727801178 MATIC0.00315
0x2ad1ae9643c4e7a55399426d680777528d0618eb2d32312094f54cd28982478cTransfer196390612021-09-29 7:55:0917 days 37 mins ago0x8fb65f8ebc806b728526b5c7150d358bc95928fe IN 0x6ae3b59797b9a58df8a09c07de76777a5da7f3761.222996041270993 MATIC0.000945
0x11e0a5b1283d1e22e43401ebc638b81419c65a0fbed4cf0dbbaeffdb2ee721ddTransfer196381822021-09-29 7:09:1517 days 1 hr ago0x8fb65f8ebc806b728526b5c7150d358bc95928fe IN 0x6ae3b59797b9a58df8a09c07de76777a5da7f3761.496451762533538 MATIC0.000756
0x5a8149782d80771d9f69f5b3123a9199c27e1ca235f8630df13a2977b37fa590Transfer196379942021-09-29 6:53:3317 days 1 hr ago0x8fb65f8ebc806b728526b5c7150d358bc95928fe IN 0x6ae3b59797b9a58df8a09c07de76777a5da7f3761.996622940203784 MATIC0.0003104892
0x4a5f5b4f229b031a6e0b2bc93a3b4bbc0c07a5a326ccc1d7ac22345cfa125343Transfer196375912021-09-29 6:38:1517 days 1 hr ago0x8fb65f8ebc806b728526b5c7150d358bc95928fe IN 0x6ae3b59797b9a58df8a09c07de76777a5da7f3763.993057517722769 MATIC0.000189
0x26adf246723a03d01e9185d4d250e95771527c6304152343adba9d77099f0912Transfer196373182021-09-29 6:22:5517 days 2 hrs ago0x8fb65f8ebc806b728526b5c7150d358bc95928fe IN 0x6ae3b59797b9a58df8a09c07de76777a5da7f3767.977939103858182 MATIC0.00126
0x629625b21040f8ab94e733756fbe734dd4d82ec72703789936fd2ad56bd5611aTransfer196368862021-09-29 5:59:4617 days 2 hrs ago0x8fb65f8ebc806b728526b5c7150d358bc95928fe IN 0x6ae3b59797b9a58df8a09c07de76777a5da7f37615.977086751691078 MATIC0.000306600987
[ Download CSV Export 
Parent Txn Hash Block From To Value
Loading

Contract Name:
0 MATIC

Compiler Version
0

Optimization Enabled:
0 MATIC

Other Settings:
-NA-
Block Transaction Gas Used Reward
Age Block Fee Address BC Fee Address Voting Power Jailed Incoming
Block Uncle Number Difficulty Gas Used Reward
Loading
Loading
Make sure to use the "Vote Down" button for any spammy posts, and the "Vote Up" for interesting conversations.